Weather History for KGUC - February, 2013

Change the Weather History Date:

Wednesday, February 20, 2013

  Actual Average Record
Temperature  
Mean Temperature 14 °F -  
Max Temperature 28 °F 30 °F 44 °F (2015)
Min Temperature 1 °F 7 °F -9 °F (2008)
Degree Days  
Heating Degree Days 52    
Moisture  
Dew Point 1 °F    
Average Humidity 71    
Maximum Humidity 100    
Minimum Humidity 42    
Precipitation  
Precipitation 0.00 in - - ()
Sea Level Pressure  
Sea Level Pressure 29.68 in    
Wind  
Wind Speed 1 mph (SSE)    
Max Wind Speed 6 mph    
Max Gust Speed -    
Visibility 10 miles    
Events      
Averages and records for this station are not official NWS values.
T = Trace of Precipitation, MM = Missing Value Source: NWS Daily Summary

Daily Weather History Graph

Daily Weather History Graph

Search for Another Location

Airport or City:

Trip Planner

Search our weather history database for the weather conditions in past years. The results will help you decide how hot, cold, wet, or windy it might be!

Date:

Astronomy

Feb. 20, 2013 Rise Set
Actual Time 6:51 AM MST 5:51 PM MST
Civil Twilight 6:24 AM MST 6:18 PM MST
Nautical Twilight 5:54 AM MST 6:49 PM MST
Astronomical Twilight 5:23 AM MST 7:20 PM MST
Moon 1:17 PM MST (2/20) 3:11 AM MST (2/20)
Length of Visible Light 11h 53m
Length of Day
10h 59m
Waxing Gibbous, 76% of the Moon is Illuminated
Feb 20
Waxing Gibbous
Feb 25
Full
Mar 4
Last Quarter
Mar 11
New
Mar 19
First Quarter

Hourly Weather History & Observations

Time (MST) Temp. Windchill Dew Point Humidity Pressure Visibility Wind Dir Wind Speed Gust Speed Precip Events Conditions
12:15 AM 3.2 °F - -5.8 °F 66% 29.78 in 10.0 mi Calm Calm - N/A   Clear
12:55 AM 1.4 °F - -9.4 °F 61% 29.78 in 10.0 mi Calm Calm - N/A   Clear
1:15 AM 3.2 °F - 3.2 °F 100% 29.77 in 10.0 mi Calm Calm - N/A   Clear
1:55 AM 3.2 °F -4.2 °F 1.4 °F 92% 29.77 in 10.0 mi East 3.5 mph - N/A   Clear
2:15 AM 3.2 °F -6.2 °F -9.4 °F 56% 29.76 in 10.0 mi NNW 4.6 mph - N/A   Clear
2:35 AM 5.0 °F - 5.0 °F 100% 29.75 in 10.0 mi Calm Calm - N/A   Clear
2:55 AM 3.2 °F - -13.0 °F 47% 29.74 in 10.0 mi Calm Calm - N/A   Clear
3:15 AM 3.2 °F - 3.2 °F 100% 29.74 in 10.0 mi Calm Calm - N/A   Clear
3:35 AM 3.2 °F - -9.4 °F 56% 29.74 in 10.0 mi Calm Calm - N/A   Clear
3:55 AM 5.0 °F - 5.0 °F 100% 29.73 in 10.0 mi Calm Calm - N/A   Clear
4:15 AM 3.2 °F - -9.4 °F 56% 29.74 in 10.0 mi Calm Calm - N/A   Clear
4:35 AM 3.2 °F - 3.2 °F 100% 29.73 in 10.0 mi Calm Calm - N/A   Clear
4:55 AM 3.2 °F - -7.6 °F 61% 29.74 in 10.0 mi Calm Calm - N/A   Clear
5:15 AM 3.2 °F -4.2 °F 3.2 °F 100% 29.73 in 10.0 mi SSE 3.5 mph - N/A   Partly Cloudy
5:35 AM 3.2 °F - -9.4 °F 56% 29.73 in 10.0 mi Calm Calm - N/A   Partly Cloudy
5:55 AM 3.2 °F - 3.2 °F 100% 29.73 in 10.0 mi Calm Calm - N/A   Partly Cloudy
6:15 AM 3.2 °F - -9.4 °F 56% 29.72 in 10.0 mi Calm Calm - N/A   Clear
6:35 AM 3.2 °F - 3.2 °F 100% 29.71 in 10.0 mi Calm Calm - N/A   Clear
6:55 AM 3.2 °F - -11.2 °F 51% 29.71 in 10.0 mi Calm Calm - N/A   Clear
7:15 AM 3.2 °F - 3.2 °F 100% 29.71 in 10.0 mi Calm Calm - N/A   Clear
7:35 AM 1.4 °F - -9.4 °F 61% 29.72 in 10.0 mi Calm Calm - N/A   Clear
7:55 AM 3.2 °F - 1.4 °F 92% 29.71 in 10.0 mi Calm Calm - N/A   Clear
8:35 AM 5.0 °F - -2.2 °F 72% 29.70 in 10.0 mi Calm Calm - N/A   Clear
8:55 AM 6.8 °F - 1.4 °F 79% 29.70 in 10.0 mi Calm Calm - N/A   Clear
9:15 AM 8.6 °F 2.0 °F -5.8 °F 52% 29.69 in 10.0 mi SE 3.5 mph - N/A   Partly Cloudy
9:35 AM 8.6 °F - 8.6 °F 100% 29.68 in 10.0 mi Calm Calm - N/A   Partly Cloudy
9:55 AM 10.4 °F - -5.8 °F 48% 29.68 in 10.0 mi Calm Calm - N/A   Mostly Cloudy
10:15 AM 12.2 °F 4.3 °F 10.4 °F 92% 29.67 in 10.0 mi South 4.6 mph - N/A   Overcast
10:35 AM 15.8 °F 7.2 °F 6.8 °F 68% 29.66 in 10.0 mi West 5.8 mph - N/A   Overcast
10:55 AM 17.6 °F 12.3 °F -2.2 °F 42% 29.65 in 10.0 mi West 3.5 mph - N/A   Mostly Cloudy
11:15 AM 19.4 °F - 12.2 °F 74% 29.64 in 10.0 mi Calm Calm - N/A   Scattered Clouds
12:15 PM 21.2 °F 13.6 °F 6.8 °F 54% 29.59 in 10.0 mi SE 5.8 mph - N/A   Overcast
12:35 PM 23.0 °F - 10.4 °F 59% 29.57 in 10.0 mi Calm Calm - N/A   Overcast
12:55 PM 26.6 °F 22.6 °F 10.4 °F 51% 29.56 in 10.0 mi NE 3.5 mph - N/A   Overcast
1:35 PM 26.6 °F - 12.2 °F 55% 29.53 in 10.0 mi Calm Calm - N/A   Overcast
1:55 PM 26.6 °F 22.6 °F 15.8 °F 64% 29.52 in 10.0 mi SSE 3.5 mph - N/A   Overcast
2:15 PM 26.6 °F 20.0 °F 12.2 °F 55% 29.51 in 10.0 mi SSE 5.8 mph - N/A   Overcast
2:35 PM 26.6 °F 20.0 °F 8.6 °F 47% 29.52 in 10.0 mi SE 5.8 mph - N/A   Overcast
2:55 PM 28.4 °F - 8.6 °F 43% 29.52 in 10.0 mi Calm Calm - N/A   Overcast